| time (UTC) | temp F | wind direction | speed MPH | gust MPH | rain 1hr in | rain 24hr in | rain mn in | humidity % | barometer mb |
| 20260906083038 | 61 | 31 | 0.0 | 0.0 | 0.00 | 0.00 | 0.00 | 83 | 1026.7 |
| 20260906081532 | 60 | 15 | 0.0 | 0.0 | 0.00 | 0.00 | 0.00 | 85 | 1026.6 |
| 20260906080028 | 59 | 360 | 0.0 | 0.0 | 0.00 | 0.00 | 0.00 | 87 | 1026.6 |
| 20260906074526 | 58 | 355 | 0.0 | 0.0 | 0.00 | 0.00 | 0.00 | 89 | 1026.5 |
| 20260906073022 | 57 | 355 | 0.0 | 0.0 | 0.00 | 0.00 | 0.00 | 91 | 1026.4 |
| 20260906071519 | 56 | 355 | 0.0 | 0.0 | 0.00 | 0.00 | 0.00 | 92 | 1026.4 |
| 20260906070017 | 55 | 238 | 0.0 | 0.0 | 0.00 | 0.00 | 0.00 | 92 | 1026.4 |
| 20260906064516 | 54 | 229 | 0.0 | 0.0 | 0.00 | 0.00 | 0.00 | 92 | 1026.3 |
| 20260906063021 | 53 | 230 | 0.0 | 0.0 | 0.00 | 0.00 | 0.00 | 93 | 1026.2 |
| 20260906061514 | 52 | 313 | 0.0 | 0.0 | 0.00 | 0.00 | 0.00 | 93 | 1026.2 |
| 20260906060014 | 52 | 315 | 0.0 | 0.0 | 0.00 | 0.00 | 0.00 | 92 | 1026.1 |
| 20260906054510 | 51 | 360 | 0.0 | 0.0 | 0.00 | 0.00 | 0.00 | 92 | 1026.1 |
| 20260906053009 | 51 | 360 | 0.0 | 0.0 | 0.00 | 0.00 | 0.00 | 92 | 1026.2 |
| 20260906051510 | 51 | 360 | 0.0 | 0.0 | 0.00 | 0.00 | 0.00 | 92 | 1026.4 |
| 20260906050008 | 51 | 360 | 0.0 | 0.0 | 0.00 | 0.00 | 0.00 | 92 | 1026.4 |
| 20260906044506 | 51 | 360 | 0.0 | 0.0 | 0.00 | 0.00 | 0.00 | 92 | 1026.4 |
| 20260906043006 | 51 | 360 | 0.0 | 0.0 | 0.00 | 0.00 | 0.00 | 91 | 1026.3 |
| 20260906041507 | 52 | 360 | 0.0 | 0.0 | 0.00 | 0.00 | 0.00 | 92 | 1026.2 |
| 20260906040014 | 51 | 360 | 0.0 | 0.0 | 0.00 | 0.00 | 0.00 | 91 | 1026.1 |
| 20260906034504 | 51 | 360 | 0.0 | 0.0 | 0.00 | 0.00 | 0.00 | 91 | 1025.9 |
| 20260906033004 | 51 | 360 | 0.0 | 0.0 | 0.00 | 0.00 | 0.00 | 91 | 1026.1 |
| 20260906031502 | 52 | 360 | 0.0 | 0.0 | 0.00 | 0.00 | 0.00 | 91 | 1026.7 |
| 20260906030001 | 52 | 360 | 0.0 | 0.0 | 0.00 | 0.00 | 0.00 | 90 | 1026.7 |
| 20260906024559 | 52 | 360 | 0.0 | 0.0 | 0.00 | 0.00 | 0.00 | 90 | 1026.4 |
| 20260906023059 | 52 | 360 | 0.0 | 0.0 | 0.00 | 0.00 | 0.00 | 90 | 1026.3 |
| 20260906021603 | 52 | 360 | 0.0 | 0.0 | 0.00 | 0.00 | 0.00 | 90 | 1026.3 |
| 20260906020105 | 52 | 360 | 0.0 | 0.0 | 0.00 | 0.00 | 0.00 | 89 | 1026.1 |
| 20260906014556 | 52 | 360 | 0.0 | 0.0 | 0.00 | 0.00 | 0.00 | 89 | 1026.4 |
| 20260906013104 | 52 | 360 | 0.0 | 0.0 | 0.00 | 0.00 | 0.00 | 89 | 1026.3 |
| 20260906011554 | 53 | 360 | 0.0 | 0.0 | 0.00 | 0.00 | 0.00 | 89 | 1026.2 |
| 20260906010054 | 53 | 360 | 0.0 | 0.0 | 0.00 | 0.00 | 0.00 | 89 | 1025.9 |
| 20260906004552 | 53 | 360 | 0.0 | 0.0 | 0.00 | 0.00 | 0.00 | 88 | 1026.0 |
| 20260906003051 | 53 | 360 | 0.0 | 0.0 | 0.00 | 0.00 | 0.00 | 88 | 1026.1 |
| 20260906001550 | 53 | 360 | 0.0 | 0.0 | 0.00 | 0.00 | 0.00 | 88 | 1026.1 |
| 20260906000100 | 53 | 360 | 0.0 | 0.0 | 0.00 | 0.00 | 0.00 | 88 | 1026.2 |
| 20260905234556 | 53 | 360 | 0.0 | 0.0 | 0.00 | 0.00 | 0.00 | 87 | 1026.2 |
| 20260905233047 | 54 | 360 | 0.0 | 0.0 | 0.00 | 0.00 | 0.00 | 87 | 1026.2 |
| 20260905231545 | 54 | 360 | 0.0 | 0.0 | 0.00 | 0.00 | 0.00 | 87 | 1026.0 |
| 20260905230044 | 54 | 360 | 0.0 | 0.0 | 0.00 | 0.00 | 0.00 | 86 | 1026.0 |
| 20260905224542 | 54 | 360 | 0.0 | 0.0 | 0.00 | 0.00 | 0.00 | 86 | 1026.0 |
| 20260905223045 | 54 | 360 | 0.0 | 0.0 | 0.00 | 0.00 | 0.00 | 85 | 1025.9 |
| 20260905221538 | 55 | 360 | 0.0 | 0.0 | 0.00 | 0.00 | 0.00 | 84 | 1025.7 |
| 20260905220038 | 55 | 360 | 0.0 | 0.0 | 0.00 | 0.00 | 0.00 | 84 | 1025.7 |
| 20260905214533 | 56 | 360 | 0.0 | 0.0 | 0.00 | 0.00 | 0.00 | 83 | 1025.7 |
| 20260905213031 | 56 | 360 | 0.0 | 0.0 | 0.00 | 0.00 | 0.00 | 83 | 1025.5 |
| 20260905211529 | 56 | 360 | 0.0 | 0.0 | 0.00 | 0.00 | 0.00 | 82 | 1025.4 |
| 20260905210043 | 57 | 360 | 0.0 | 0.0 | 0.00 | 0.00 | 0.00 | 81 | 1025.3 |
| 20260905204534 | 58 | 360 | 0.0 | 0.0 | 0.00 | 0.00 | 0.00 | 80 | 1025.2 |
| 20260905203023 | 58 | 360 | 0.0 | 0.0 | 0.00 | 0.00 | 0.00 | 79 | 1025.0 |
| 20260905201521 | 58 | 360 | 0.0 | 0.0 | 0.00 | 0.00 | 0.00 | 79 | 1025.1 |
| 20260905200024 | 59 | 360 | 0.0 | 0.0 | 0.00 | 0.00 | 0.00 | 77 | 1025.0 |
| 20260905194518 | 60 | 360 | 0.0 | 0.0 | 0.00 | 0.00 | 0.00 | 76 | 1024.8 |
| 20260905193019 | 61 | 360 | 0.0 | 0.0 | 0.00 | 0.00 | 0.00 | 75 | 1024.8 |
| 20260905191520 | 62 | 360 | 0.0 | 0.0 | 0.00 | 0.00 | 0.00 | 73 | 1024.7 |
| 20260905190019 | 63 | 360 | 0.0 | 0.0 | 0.00 | 0.00 | 0.00 | 73 | 1024.6 |
| 20260905184519 | 63 | 360 | 0.0 | 0.0 | 0.00 | 0.00 | 0.00 | 71 | 1024.5 |
| 20260905183014 | 64 | 360 | 0.0 | 0.0 | 0.00 | 0.00 | 0.00 | 70 | 1024.3 |
| 20260905181516 | 65 | 360 | 0.0 | 0.0 | 0.00 | 0.00 | 0.00 | 70 | 1024.1 |
| 20260905180009 | 65 | 360 | 0.0 | 0.0 | 0.00 | 0.00 | 0.00 | 70 | 1023.9 |
| 20260905174518 | 66 | 360 | 0.0 | 0.0 | 0.00 | 0.00 | 0.00 | 69 | 1023.9 |
| 20260905173007 | 67 | 360 | 0.0 | 0.0 | 0.00 | 0.00 | 0.00 | 67 | 1023.7 |
| 20260905171505 | 67 | 360 | 0.0 | 0.0 | 0.00 | 0.00 | 0.00 | 65 | 1023.4 |
| 20260905170005 | 68 | 258 | 0.0 | 0.0 | 0.00 | 0.02 | 0.00 | 64 | 1023.4 |
| 20260905164503 | 69 | 360 | 0.0 | 0.0 | 0.00 | 0.02 | 0.00 | 63 | 1023.2 |
| 20260905163001 | 69 | 360 | 0.0 | 0.0 | 0.00 | 0.02 | 0.00 | 63 | 1023.1 |
| 20260905161559 | 69 | 360 | 0.0 | 0.0 | 0.00 | 0.02 | 0.00 | 62 | 1022.8 |
| 20260905160109 | 70 | 238 | 0.0 | 0.0 | 0.00 | 0.11 | 0.00 | 65 | 1022.8 |
| 20260905154630 | 70 | 360 | 0.0 | 0.0 | 0.00 | 0.11 | 0.00 | 63 | 1022.6 |
| 20260905153056 | 71 | 360 | 0.0 | 0.0 | 0.00 | 0.11 | 0.00 | 62 | 1022.5 |
| 20260905151555 | 71 | 294 | 0.0 | 0.0 | 0.00 | 0.11 | 0.00 | 61 | 1022.3 |
| 20260905144551 | 70 | 360 | 0.0 | 0.0 | 0.00 | 0.11 | 0.00 | 63 | 1022.1 |
| 20260905143059 | 69 | 360 | 0.0 | 0.0 | 0.00 | 0.11 | 0.00 | 64 | 1022.1 |
| 20260905141548 | 69 | 360 | 0.0 | 0.0 | 0.00 | 0.11 | 0.00 | 67 | 1022.0 |
| 20260905140048 | 69 | 289 | 0.0 | 0.0 | 0.00 | 0.11 | 0.00 | 66 | 1021.8 |
| 20260905134546 | 70 | 360 | 0.0 | 0.0 | 0.00 | 0.11 | 0.00 | 67 | 1021.8 |
| 20260905133046 | 70 | 360 | 0.0 | 0.0 | 0.00 | 0.11 | 0.00 | 68 | 1021.8 |
| 20260905131545 | 70 | 360 | 0.0 | 0.0 | 0.00 | 0.11 | 0.00 | 67 | 1021.8 |
| 20260905130048 | 70 | 291 | 0.0 | 0.0 | 0.00 | 0.11 | 0.00 | 67 | 1021.8 |
| 20260905124542 | 70 | 360 | 0.0 | 0.0 | 0.00 | 0.11 | 0.00 | 69 | 1021.7 |
| 20260905123042 | 70 | 360 | 0.0 | 0.0 | 0.00 | 0.11 | 0.00 | 67 | 1021.6 |
| 20260905121540 | 70 | 298 | 0.0 | 0.0 | 0.00 | 0.11 | 0.00 | 69 | 1021.5 |
| 20260905120048 | 69 | 304 | 0.0 | 0.0 | 0.00 | 0.11 | 0.00 | 69 | 1021.4 |
| 20260905114537 | 69 | 360 | 0.0 | 0.0 | 0.00 | 0.11 | 0.00 | 72 | 1021.2 |
| 20260905113035 | 68 | 360 | 0.0 | 0.0 | 0.00 | 0.11 | 0.00 | 72 | 1021.4 |
| 20260905111538 | 69 | 297 | 0.0 | 0.0 | 0.00 | 0.11 | 0.00 | 72 | 1021.2 |
| 20260905110033 | 69 | 284 | 0.0 | 0.0 | 0.00 | 0.11 | 0.00 | 71 | 1021.2 |
| 20260905104530 | 69 | 296 | 0.0 | 0.0 | 0.00 | 0.11 | 0.00 | 73 | 1021.1 |
| 20260905103029 | 69 | 360 | 0.0 | 0.0 | 0.00 | 0.11 | 0.00 | 73 | 1021.1 |
| 20260905101526 | 67 | 289 | 0.0 | 0.0 | 0.00 | 0.11 | 0.00 | 77 | 1020.9 |
| 20260905100024 | 67 | 306 | 0.0 | 0.0 | 0.00 | 0.11 | 0.00 | 78 | 1020.9 |
| 20260905094537 | 66 | 287 | 0.0 | 0.0 | 0.00 | 0.11 | 0.00 | 81 | 1020.7 |
| 20260905093020 | 66 | 360 | 0.0 | 0.0 | 0.00 | 0.11 | 0.00 | 80 | 1020.7 |
| 20260905091517 | 66 | 261 | 0.0 | 0.0 | 0.00 | 0.11 | 0.00 | 82 | 1020.6 |
| 20260905090016 | 65 | 302 | 0.0 | 0.0 | 0.00 | 0.11 | 0.00 | 84 | 1020.3 |
| 20260905084510 | 64 | 360 | 0.0 | 0.0 | 0.00 | 0.11 | 0.00 | 85 | 1020.3 |